Regional Weather Roundup
Issued by NWS Newport/Morehead, NC

Current Version | Previous Version | Graphics & Text | Print | Product List | Glossary On
Versions: 1 2 3 4 5 6 7 8 9 10 11 12 13 14 15 16 17 18 19 20 21 22 23 24 25 26 27 28 29 30 31 32 33 34 35 36 37 38 39 40 41 42 43 44 45 46 47 48 49 50
000
ASUS42 KMHX 240426
RWRMHX
WEATHER ROUNDUP FOR EASTERN NORTH CAROLINA
NATIONAL WEATHER SERVICE NEWPORT/MOREHEAD CITY NC
1200 AM EDT THU MAY 24 2018

NOTE: "FAIR" INDICATES FEW OR NO CLOUDS BELOW 12,000 FEET
WITH NO SIGNIFICANT WEATHER AND/OR OBSTRUCTIONS TO VISIBILITY

NCZ015>017-031-032-045>047-102-103-240500-
NORTH COAST

CITY           SKY/WX    TMP DP  RH WIND       PRES   REMARKS
EDENTON        FAIR      69  68  96 CALM      30.09R
ELIZABETH CITY FAIR      68  68 100 N5        30.07S
KITTY HAWK     FAIR      70  70 100 CALM      30.06S
MANTEO         FAIR      66  66  98 N3        30.07S

$$

NCZ045>047-081-094-103-104-240500-
CENTRAL COAST

CITY           SKY/WX    TMP DP  RH WIND       PRES   REMARKS
FRISCO         FAIR      69  69 100 SW6       30.07R

$$

NCZ095-097-098-100-101-240500-
SOUTHERN COAST

CITY           SKY/WX    TMP DP  RH WIND       PRES   REMARKS
BEAUFORT       LGT RAIN  69  68  96 W10       30.10R
CEDAR ISLAND   NOT AVBL
JACKSONVILLE   FAIR      74  72  93 CALM      30.06S
PINEY ISLAND   NOT AVBL
WILMINGTON     MOCLDY    74  67  78 SW7       30.08R


$$

NCZ011>013-027>030-043-044-078>080-089-090>093-098-240500-
COASTAL PLAIN

CITY           SKY/WX    TMP DP  RH WIND       PRES   REMARKS
AHOSKIE        MOCLDY    68  68 100 CALM      30.08R
CLINTON        FAIR      73  73  99 CALM      30.08S
ELIZABETHTOWN  FAIR      73  71  91 SW5       30.08S
GOLDSBORO      FAIR      73  71  93 CALM      30.05R
GREENVILLE     MOCLDY    72  68  88 CALM      30.08S
HAVELOCK       NOT AVBL
KENANSVILLE    FAIR      70  70 100 CALM      30.07S
KINSTON        FAIR      73  71  94 CALM      30.08R
NEW BERN       FAIR      69  67  93 CALM      30.08F
RICHLANDS      LGT RAIN  73  72  96 SW6       30.07S
ROCKY MOUNT    FAIR      69  68  96 CALM      30.07R
WASHINGTON     FAIR      69  69  98 CALM      30.08R
WHITEVILLE     FAIR      73  69  88 S3        30.08S

$$

AMZ130-135-150-152-154-156-158-170-250-252-270-ANZ085-086-088-633-658-670-240500-
MARINE OBSERVATIONS

STATION/POSITION TIME  TEMP    WIND        PRES    WAVE   SWELL
                       AIR SEA DIR/SP/G            HT/PER HT/PER
                 (UTC) (F)     (DEG/KT/KT) (MB)    (FT/S) (FT/S)
CHESAPEAKE LIGHT NOT AVBL
64 E VA BEACH    0350   71 70  270/  6/  8 1017.9    4/ 6   3/ 6
DUCK             0400   73 68  290/  5/  6 1017.8
2 E DUCK         0400      66                N/A     2/ 8
OREGON INLET     0400   72 79  280/  4/  6 1017.8
13E OREGON INLT  0348      70                N/A     3/ 6   3/ 6
HATTERAS CG      0400   70 76  220/  5/  9 1017.5
DIAMOND BUOY     0410   71 74  220/ 14/ 16 1018.0
CAPE LOOKOUT     0400          340/ 19/ 22 1019.4
BEAUFORT LAB     0400   70 78  240/  5/  8 1019.7
30 SE NEW RVR IN 0408   76     240/ 12/ 16 1018.6
30 SE NEW RVR IN 0400      76                N/A     4/ 8
27 SE WRIGHTSVLE 0408   75 75  230/ 14/ 21 1018.7
5 SE WRIGHTSVLE  0408   73 73  330/ 10/ 12 1017.8
225 S CAPE HAT   0410      78  220/  8/ 10 1020.2
41 SE CHARLESTON 0410      75  220/  6/  8 1019.2

$$



USA.gov is the U.S. government's official web portal to all federal, state and local government web resources and services.